Powrót do katalogu

STARLINK-35850

AktywnyŁącznośćVLEO
NORAD 66352·PAYLOAD·🇺🇸 United States

Wystrzelony Nov 6, 2025 z Vandenberg Space Force Base

Loading…

Następne Przeloty (najbliższe 24 godziny)

TLE

ŚwieżeSource: CelesTrak SupGP

Epoka: Sep 14, 2026, 21:28 UTC

1 66352C 25254E   26257.89493056  .00021645  00000+0  63963-3 0  2570
2 66352  53.1582  71.5675 0001159  80.9361 245.2155 15.34373417    15

Śledź STARLINK-35850 w czasie rzeczywistym z AllMySat

Download on the App Store